Tracking 34794 objects as of 19-Jul-2026
HD Live streaming from Space Station
objects crossing your sky now

TJS-11

Track TJS-11 now!


NORAD ID: 59020
Int'l Code: 2024-037A
Perigee: 35,785.4 km
Apogee: 35,801.8 km
Inclination: 4.2 °
Period: 1,436.1 minutes
Semi major axis: 42164 km
RCS: Unknown
Launch date: February 23, 2024
Source: People's Republic of China (PRC)
Launch site: Wenchang Satellite Launch Center (WSC)
Your satellite tracking list
Your tracking list is empty




NASA's NSSDC Master Catalog

Two Line Element Set (TLE):
1 59020U 24037A   26199.83192948 -.00000368  00000-0  00000+0 0  9990
2 59020   4.1580 327.4843 0001946 153.5816 227.6369  1.00272441  8909
Source of the keplerian elements: AFSPC